Temperature
21 20 20 20 18 17 19 20 20 21 21 21 21 20 19 18 18 18 18 18 18 18 18 18 18 18 18 18 18 18 17 17 17 17 17 17 17 17 17 17 17 17 17 17 17 17 17 17 17
21 21 21 20 18 18 19 20 20 21 21 21 21 20 19 18 18 18 17 17 18 18 18 17 17 18 18 18 18 17 17 17 17 17 17 17 17 17 17 17 17 17 17 17 17 17 17 17 17
21 20 20 17 18 18 20 20 20 21 22 21 20 20 19 18 18 18 18 17 18 18 17 17 17 17 17 17 17 17 17 17 17 17 17 17 17 17 17 17 17 17 17 17 17 17 17 17 17
21 21 20 18 19 19 20 20 21 21 21 21 20 19 18 18 18 18 18 18 18 17 17 17 17 17 17 17 17 17 17 17 17 17 17 17 17 17 17 17 17 17 17 17 17 17 17 17 17
21 21 18 18 19 20 20 21 21 20 21 20 19 18 18 18 18 18 18 18 18 17 17 17 17 17 17 17 17 17 17 17 17 17 17 17 17 17 17 17 17 17 17 17 17 17 17 17 17
21 19 18 18 19 20 20 21 21 20 20 20 19 18 17 18 18 18 18 18 17 17 17 17 17 17 17 17 17 17 17 17 17 17 17 17 17 17 17 17 17 17 17 17 17 17 16 16 17
20 18 18 19 19 20 21 22 21 20 20 20 20 18 17 18 18 18 18 17 17 17 17 17 17 17 17 17 17 17 17 17 17 17 17 17 17 17 17 17 16 16 16 16 16 16 16 16 16
22 18 19 19 19 20 21 22 21 21 20 20 20 18 17 18 18 18 17 17 17 17 17 17 17 17 17 17 17 17 17 16 16 16 16 16 16 16 16 16 16 16 16 16 16 16 16 16 16
22 18 18 19 19 20 21 21 21 21 21 20 20 19 19 18 18 18 17 17 17 17 17 17 17 17 17 17 17 17 17 16 16 16 16 16 16 16 16 16 16 16 16 16 16 16 16 16 16
21 18 19 20 20 20 21 21 21 20 20 19 19 19 19 18 18 18 18 17 17 17 17 17 17 17 17 17 17 17 16 16 16 16 16 16 16 16 16 16 16 16 16 16 16 16 16 16 16
20 19 20 21 21 21 21 21 21 20 19 19 19 19 18 18 18 18 18 18 17 17 17 17 17 17 17 17 17 17 17 16 16 16 16 16 16 16 16 16 16 16 16 16 16 16 16 16 16
20 20 21 21 22 21 21 21 21 20 20 20 20 19 19 18 18 18 18 18 17 17 17 17 17 17 17 17 17 17 17 16 16 16 16 16 16 16 16 16 16 16 16 16 16 16 15 15 15
20 21 22 22 22 21 21 21 20 20 20 20 20 19 19 18 18 18 18 18 18 17 17 17 17 17 17 17 17 17 16 16 16 16 16 16 16 16 16 16 16 16 16 16 15 15 15 15 15
21 21 21 22 22 21 21 20 20 20 20 20 19 19 19 19 18 18 18 18 18 17 17 17 17 17 17 17 17 17 16 16 16 16 16 16 16 16 16 16 16 15 15 15 15 15 15 15 15
21 20 20 21 21 21 21 19 19 20 20 20 19 19 19 19 18 18 18 18 18 18 17 17 17 17 17 17 17 16 16 16 16 16 16 16 16 16 16 15 15 15 15 15 15 15 15 15 15
20 19 19 20 20 21 20 18 19 20 20 19 19 19 19 19 19 18 18 18 18 18 17 17 17 17 17 17 16 16 16 16 16 16 16 16 16 16 15 15 15 15 15 15 15 15 15 15 15
19 18 19 19 20 20 19 18 19 20 20 19 19 19 19 19 19 18 18 18 18 18 17 17 17 17 17 16 16 16 16 16 16 16 16 16 16 16 15 15 15 15 15 15 15 15 15 15 15
19 19 19 19 20 20 19 18 18 19 19 19 19 19 19 18 19 19 18 18 18 18 17 17 17 17 17 16 16 16 16 16 16 16 16 16 15 15 15 15 15 15 15 15 14 14 14 14 14
20 20 19 20 21 20 19 18 18 19 19 18 18 18 18 19 19 19 18 18 18 18 17 17 17 17 16 16 16 16 16 16 16 16 15 15 15 15 15 15 15 15 15 14 14 14 14 14 14
20 20 20 20 21 20 19 18 18 18 18 18 18 18 18 19 18 18 18 18 18 17 17 17 17 16 16 16 16 16 16 16 16 15 15 15 15 15 15 15 15 15 15 14 14 14 14 14 14
21 20 20 20 20 20 19 18 18 18 19 19 19 19 19 19 19 18 18 18 18 17 17 17 17 16 16 16 16 16 16 16 15 15 15 15 15 15 15 15 15 15 14 14 14 14 14 14 14
20 21 21 21 19 18 19 17 17 17 17 18 18 18 18 18 19 18 18 18 18 17 17 17 16 16 16 16 16 16 15 15 15 15 15 15 15 14 14 14 14 14 14 14 14 14 14 14 14
21 22 21 21 19 18 18 17 17 17 17 17 17 18 19 19 19 18 18 18 18 17 17 17 16 16 16 16 16 15 15 15 15 15 15 15 14 14 14 14 14 14 14 14 14 14 14 14 13
22 21 20 17 17 17 18 17 17 17 17 18 18 18 19 19 18 18 18 18 17 17 17 17 16 16 16 16 15 15 15 15 15 15 14 14 14 14 14 14 14 14 14 14 14 14 14 13 13
20 18 17 17 16 17 18 18 17 18 18 18 18 18 19 19 18 18 18 17 17 17 17 16 16 16 16 16 15 15 15 15 15 15 14 14 14 14 14 14 14 14 14 14 14 14 13 13 13
19 18 17 17 17 17 18 17 18 19 19 19 19 19 19 19 18 18 18 18 17 17 17 16 16 16 16 15 15 15 15 15 15 14 14 14 14 14 14 14 14 13 13 13 13 13 13 13 13
19 18 17 17 17 17 17 18 19 19 18 18 18 18 18 18 18 18 18 17 17 17 17 16 16 16 15 15 15 15 15 15 14 14 14 14 14 14 14 13 13 13 13 13 13 13 13 13 13
20 18 16 17 17 17 17 17 17 18 18 18 17 17 18 18 18 18 18 18 17 17 16 16 16 16 15 15 15 15 15 14 14 14 14 14 14 13 13 13 13 13 13 13 13 13 13 13 13
19 19 17 15 16 16 16 17 18 18 18 17 17 18 18 18 17 17 17 17 17 17 16 16 16 15 15 15 15 15 14 14 14 14 14 13 13 13 13 13 13 13 13 13 13 13 13 12 12
20 19 17 16 16 15 15 16 18 17 18 17 18 18 18 18 17 17 17 17 16 16 16 16 15 15 15 15 15 14 14 14 14 14 13 13 13 13 13 13 13 13 13 12 12 12 12 12 12
Wind_Speed
3 2 3 3 5 4 2 1 1 3 3 4 8 9 8 6 4 3 2 6 7 5 5 7 8 8 9 9 9 9 10 10 10 11 11 11 11 11 11 11 11 11 11 11 10 10 10 10 10
2 2 3 4 5 3 1 1 4 3 4 5 7 8 7 5 4 5 3 6 7 7 6 7 8 8 9 9 9 9 10 10 10 11 11 11 11 11 11 11 11 11 11 11 10 10 10 10 10
1 1 3 4 3 3 2 2 3 3 4 4 5 6 5 4 3 3 4 7 7 6 7 8 9 9 9 9 9 9 9 9 10 10 11 10 10 11 11 11 11 10 10 10 10 10 10 10 11
3 4 4 5 3 0 3 3 3 3 4 5 6 6 4 2 3 4 7 8 8 6 7 8 9 10 10 10 10 9 9 9 10 10 10 10 10 10 11 11 10 10 10 10 10 10 9 9 10
3 4 5 3 2 1 1 3 4 4 3 5 7 6 3 3 5 8 9 9 9 6 6 8 10 10 10 10 10 10 10 9 9 10 10 10 10 10 10 10 10 9 9 9 9 8 9 9 9
4 4 4 2 2 1 2 2 6 5 5 5 6 6 2 1 5 7 8 7 7 7 6 7 9 10 10 10 10 10 9 10 10 9 9 9 9 9 9 9 9 9 9 8 8 8 8 9 9
4 4 3 3 2 2 1 2 4 5 5 3 5 5 3 1 4 6 7 7 6 7 6 5 6 8 9 9 9 9 9 9 8 8 8 8 8 8 8 8 9 9 8 8 7 7 8 9 9
5 4 2 2 3 1 1 3 4 6 4 4 5 7 5 4 5 7 7 6 7 6 5 5 5 6 6 6 8 8 8 8 8 7 7 7 7 7 7 7 7 8 7 7 7 7 7 8 8
4 4 2 2 4 2 1 3 3 4 6 5 4 5 6 8 7 7 6 5 5 5 4 4 4 4 5 5 5 6 6 6 6 5 5 5 4 4 5 6 6 7 6 6 6 6 7 8 9
4 4 2 3 5 4 2 3 3 4 6 5 6 5 8 8 8 8 7 6 5 5 4 4 4 3 4 4 4 4 4 4 3 3 3 4 4 4 4 5 5 5 5 6 7 7 7 7 8
3 4 3 2 5 4 3 1 2 6 3 5 9 9 9 8 7 7 6 6 6 6 5 4 4 4 4 3 4 3 3 2 2 3 4 5 4 4 4 4 4 4 5 5 6 7 7 6 6
4 2 3 3 4 4 3 2 2 4 4 7 11 12 10 8 7 7 7 6 5 5 5 5 5 4 3 4 3 3 2 2 2 3 4 5 3 3 3 3 3 3 4 4 5 4 6 6 5
3 2 2 3 4 3 3 2 3 3 5 7 10 10 10 9 7 6 6 6 5 5 5 5 5 5 4 3 2 3 2 2 3 3 4 6 3 3 3 3 3 3 4 4 3 4 4 4 4
3 3 2 2 2 2 4 2 3 4 7 9 10 9 9 9 7 6 6 6 5 5 5 5 5 5 5 3 3 2 3 3 3 4 4 6 5 4 3 3 3 3 4 4 4 4 3 3 3
3 2 2 1 2 2 4 0 3 6 8 8 9 9 8 8 7 7 7 7 6 6 5 5 5 5 5 4 3 3 3 4 3 3 5 6 6 6 4 3 2 3 4 6 5 5 4 3 4
2 2 1 4 3 3 4 4 5 5 9 8 8 7 8 7 7 7 7 6 6 6 5 5 5 5 5 4 3 3 3 3 3 4 5 6 7 7 5 3 2 3 5 4 3 3 4 4 3
1 1 3 4 4 3 4 5 5 6 9 10 8 8 8 7 6 6 7 7 7 7 6 5 5 6 5 4 3 3 3 3 2 3 4 5 6 7 6 3 2 4 4 3 3 3 3 3 3
4 4 3 4 4 4 4 6 6 6 8 9 9 7 7 8 8 6 6 7 6 6 6 5 5 5 5 4 3 3 3 2 2 3 3 5 5 6 6 4 3 4 3 3 3 3 3 2 2
5 4 5 6 6 4 6 7 7 6 7 7 8 8 8 9 8 6 6 7 6 5 6 5 5 4 4 3 3 2 1 1 1 1 3 4 5 6 5 3 2 3 3 2 2 2 3 2 2
4 4 4 5 4 4 4 5 6 6 8 9 11 11 10 8 5 5 6 6 6 6 6 5 5 4 4 3 3 3 2 1 1 1 2 4 4 5 5 4 2 2 2 2 2 2 2 1 1
4 5 5 5 2 1 0 4 4 5 5 7 9 9 10 11 10 8 7 7 7 6 7 6 6 5 4 3 3 3 3 2 2 1 1 1 3 4 4 4 3 2 2 2 2 2 3 2 0
5 7 5 3 1 3 3 3 7 5 5 7 8 8 9 9 9 9 9 8 8 8 7 7 6 5 4 4 4 5 3 2 2 2 1 1 2 2 3 3 3 2 2 2 2 2 2 3 1
6 5 3 2 3 2 2 3 6 3 5 8 9 9 10 10 10 10 11 10 8 8 8 7 6 6 5 5 5 5 3 2 1 1 2 1 1 1 2 3 2 2 2 3 2 2 2 2 3
2 3 4 4 3 3 5 5 5 5 8 7 8 9 9 10 10 10 9 7 7 7 6 6 7 6 5 5 5 6 5 4 3 2 2 1 1 1 2 2 2 2 2 3 2 2 3 3 2
4 5 3 4 3 5 3 3 6 7 6 7 9 9 8 8 9 9 9 8 7 8 7 7 7 6 6 6 6 6 6 6 5 4 4 3 2 2 3 3 3 3 3 3 2 2 3 3 3
3 7 6 4 4 4 3 3 6 5 2 3 6 7 7 8 9 10 10 10 8 8 9 8 8 7 7 6 6 6 6 5 4 4 4 4 3 4 4 4 4 3 3 3 2 2 2 2 3
4 3 6 5 2 2 3 4 5 4 3 2 4 5 7 8 9 10 9 9 9 8 9 9 9 7 7 7 7 6 6 5 5 5 4 4 3 3 3 4 4 4 3 3 3 2 2 2 2
5 5 5 3 2 2 3 3 4 3 1 2 4 6 6 6 6 7 8 9 8 8 7 8 8 8 7 7 7 6 6 6 5 4 4 4 4 3 3 3 4 3 3 3 3 2 2 2 2
2 3 4 3 3 4 3 5 4 6 5 4 5 6 6 6 6 6 5 6 6 5 5 6 7 7 7 7 7 6 5 5 5 5 5 5 4 3 3 3 3 3 3 3 3 3 3 3 2
5 5 6 4 3 3 3 5 5 4 4 4 4 4 4 5 5 5 4 4 3 3 4 4 5 6 7 7 7 6 6 5 5 5 5 5 4 4 4 3 2 3 3 3 3 3 2 3 3
Wind_Direction
174 123 92 64 57 56 46 345 69 58 55 55 70 81 84 68 79 123 193 138 133 137 134 122 115 111 105 99 99 101 100 98 95 93 91 90 89 86 86 86 87 87 87 85 81 77 76 74 74
139 106 65 59 81 80 11 37 74 77 126 110 75 75 78 71 78 107 125 140 134 134 130 125 121 115 110 105 105 105 104 101 99 95 93 92 90 88 86 86 87 87 86 84 82 79 76 72 72
157 109 82 68 87 134 139 128 118 84 83 85 77 57 73 93 96 120 148 143 127 125 125 126 123 118 114 110 108 109 108 104 102 100 98 96 92 91 88 87 86 85 83 81 79 78 77 74 73
67 46 56 71 77 85 150 159 130 84 57 62 94 69 59 61 124 136 137 133 125 123 124 123 121 118 114 110 108 108 108 105 104 102 99 98 95 93 90 88 88 86 84 82 80 80 76 73 73
68 72 65 64 66 47 111 124 106 83 72 74 93 93 64 16 111 126 129 127 127 125 123 124 121 118 115 111 107 106 107 106 104 102 100 99 98 95 92 92 91 91 88 86 83 80 74 73 73
62 73 84 89 77 47 34 96 101 94 100 95 96 105 100 93 114 129 131 129 130 132 125 124 124 122 119 114 112 110 110 107 104 102 101 100 100 97 96 96 94 94 92 89 85 82 78 74 73
109 98 122 135 108 68 112 105 110 113 100 107 117 107 124 140 139 134 132 130 122 124 123 116 123 123 121 117 115 115 114 111 109 106 103 101 100 99 98 100 100 99 96 92 88 84 77 70 68
129 106 96 126 123 93 100 96 112 108 107 114 110 129 159 195 148 120 117 116 119 119 124 129 129 128 126 122 119 118 117 114 112 110 108 105 102 102 100 102 104 101 95 91 87 82 74 65 68
95 84 120 168 151 158 123 97 77 84 90 77 88 138 158 153 125 112 105 100 115 125 138 139 139 140 140 135 127 120 114 114 112 109 107 105 98 101 102 106 103 98 91 85 79 74 67 64 70
85 117 196 174 153 150 127 123 130 91 83 86 85 100 127 134 130 129 131 135 139 147 158 152 146 154 156 141 126 122 112 108 108 103 97 99 104 106 99 97 96 90 82 73 67 67 67 64 68
122 154 162 137 146 138 124 96 107 122 121 154 150 147 142 138 140 145 144 149 157 164 154 155 157 155 151 138 137 129 121 110 105 109 108 108 101 91 78 69 63 60 59 58 59 62 66 67 72
119 149 147 147 141 133 146 141 98 128 177 165 155 150 145 146 155 158 153 155 156 149 152 152 151 147 144 133 124 123 120 115 112 108 112 112 104 92 83 71 62 61 60 59 62 67 65 66 72
127 160 142 153 136 141 132 136 135 142 149 140 143 145 150 157 162 161 157 161 153 151 151 154 145 147 135 113 109 106 110 110 112 107 109 117 112 111 101 89 79 72 74 75 75 77 70 67 71
161 138 136 148 145 153 141 177 139 177 151 140 147 156 160 161 159 148 150 161 162 160 156 147 143 144 128 123 122 114 113 109 98 90 104 115 115 114 104 96 81 70 76 88 89 90 84 75 82
115 92 1 268 191 188 133 357 198 184 151 150 158 163 164 167 162 164 169 168 167 161 154 144 145 137 132 134 132 117 113 104 89 85 95 101 106 113 107 99 88 78 82 83 76 68 69 68 74
72 76 275 272 211 208 145 232 239 185 154 167 173 172 174 180 177 179 171 170 169 157 153 150 143 137 140 136 123 107 108 100 91 94 96 101 107 110 104 101 96 91 82 79 78 69 66 59 63
25 199 234 273 225 189 172 224 237 189 169 178 185 185 184 186 187 185 175 170 167 163 155 146 137 141 145 134 116 103 100 92 94 92 96 110 111 113 111 107 102 97 84 69 85 75 82 77 68
218 213 229 240 232 172 196 229 231 202 181 187 193 191 188 188 197 187 175 165 161 158 153 147 143 144 142 125 108 92 82 68 70 84 98 116 118 120 118 111 101 100 91 72 77 82 71 81 76
206 210 238 247 228 187 216 231 230 209 187 191 198 197 196 201 202 181 171 163 151 144 144 143 139 146 138 130 131 126 135 148 80 74 101 114 114 116 118 115 108 106 110 116 114 107 85 64 73
212 222 252 271 236 193 218 244 236 209 201 194 193 197 198 197 189 181 169 162 161 160 156 150 147 146 148 158 163 158 156 155 134 67 75 104 114 121 124 126 130 125 117 108 115 118 119 102 90
232 215 228 239 282 323 103 305 262 243 212 200 196 194 194 190 188 184 176 173 167 166 167 164 159 155 157 151 137 109 75 52 53 57 87 96 126 130 131 134 131 135 143 154 160 155 145 162 267
241 243 227 209 161 257 193 262 270 237 223 209 203 197 199 196 187 180 177 176 174 177 172 164 163 163 165 157 147 146 146 163 203 197 182 142 128 134 143 146 144 155 165 174 182 159 160 156 188
219 229 223 201 183 260 230 200 274 237 229 223 210 201 199 194 185 183 183 181 176 172 167 167 162 163 164 160 158 158 156 179 189 162 152 168 181 165 161 163 162 175 187 192 185 169 174 170 172
191 40 21 43 76 284 230 187 265 231 222 215 209 204 200 195 186 183 184 173 173 171 166 166 163 171 171 163 163 165 167 167 159 161 178 208 235 228 225 193 182 190 198 200 198 193 188 188 182
85 82 26 352 355 263 240 185 252 251 225 201 196 196 196 188 179 178 177 176 177 176 175 175 171 177 179 172 176 178 178 174 180 184 192 201 214 236 239 218 207 205 201 197 191 190 197 196 194
177 144 162 208 239 281 325 239 272 290 232 184 180 179 175 180 177 180 184 181 181 184 183 181 179 182 183 184 189 185 181 182 192 194 193 203 212 225 225 219 214 209 203 199 195 203 211 198 205
153 175 177 156 227 271 292 293 319 7 43 106 145 160 172 180 180 180 182 184 186 189 190 187 184 186 190 191 189 185 188 190 194 199 199 208 221 229 222 219 216 217 206 195 183 202 211 189 207
159 155 103 129 192 251 285 278 259 263 234 149 155 169 184 180 181 184 186 187 190 192 191 188 188 194 195 192 193 192 197 201 200 194 198 206 217 223 219 220 218 218 212 201 180 190 207 179 194
141 128 127 146 171 173 241 273 246 209 202 188 188 182 174 171 173 180 186 191 189 185 185 190 195 196 196 196 197 194 198 200 197 200 207 209 213 215 216 217 217 212 210 204 187 199 200 195 201
173 175 154 165 235 184 183 262 289 210 195 175 179 177 173 170 171 173 173 167 163 168 182 198 205 202 202 199 199 199 200 197 199 205 212 207 207 211 209 199 200 209 208 205 194 207 205 203 208
Height
1518 1518 1518 1519 1522 1531 1533 1527 1521 1520 1519 1519 1518 1519 1522 1526 1530 1536 1533 1531 1531 1531 1530 1530 1529 1529 1529 1528 1528 1527 1527 1527 1527 1527 1527 1527 1526 1526 1526 1526 1525 1525 1525 1525 1525 1524 1524 1524 1524
1518 1518 1519 1519 1528 1539 1535 1525 1523 1520 1520 1519 1520 1522 1524 1527 1529 1530 1530 1531 1531 1531 1531 1530 1530 1529 1529 1529 1528 1528 1528 1528 1528 1528 1528 1528 1527 1527 1527 1527 1526 1526 1526 1526 1526 1525 1525 1525 1525
1518 1518 1520 1522 1530 1536 1532 1525 1522 1520 1520 1519 1522 1524 1526 1529 1530 1530 1531 1531 1532 1531 1531 1531 1530 1530 1529 1529 1529 1528 1528 1529 1529 1529 1529 1529 1528 1528 1528 1527 1527 1527 1527 1527 1527 1526 1526 1526 1525
1519 1520 1521 1528 1532 1528 1525 1522 1520 1520 1521 1521 1523 1527 1529 1531 1531 1531 1532 1532 1532 1532 1532 1531 1531 1530 1530 1529 1529 1529 1529 1529 1530 1530 1530 1529 1529 1529 1529 1528 1528 1528 1528 1528 1527 1527 1527 1527 1526
1519 1520 1526 1533 1531 1526 1522 1521 1521 1521 1522 1524 1524 1529 1531 1532 1532 1532 1532 1533 1533 1533 1532 1532 1532 1531 1531 1531 1531 1530 1530 1530 1530 1531 1530 1530 1530 1530 1530 1529 1529 1529 1529 1528 1528 1528 1528 1527 1527
1520 1522 1534 1538 1532 1525 1523 1522 1522 1523 1524 1526 1527 1529 1533 1533 1533 1533 1533 1534 1534 1533 1533 1533 1533 1533 1532 1532 1532 1532 1532 1532 1532 1532 1531 1531 1531 1531 1531 1530 1530 1530 1530 1530 1529 1529 1529 1528 1528
1521 1525 1533 1533 1532 1528 1524 1522 1523 1524 1525 1526 1527 1530 1533 1534 1534 1534 1534 1534 1534 1534 1534 1534 1534 1534 1534 1533 1533 1533 1533 1533 1533 1533 1533 1533 1532 1532 1532 1531 1531 1531 1531 1531 1530 1530 1530 1529 1529
1519 1525 1531 1532 1532 1529 1525 1523 1524 1523 1525 1526 1527 1529 1532 1533 1534 1534 1535 1535 1535 1535 1535 1535 1535 1535 1535 1535 1535 1535 1534 1534 1534 1534 1534 1534 1533 1533 1533 1533 1532 1532 1532 1532 1532 1531 1531 1530 1530
1519 1528 1534 1530 1530 1528 1524 1524 1525 1525 1525 1526 1527 1528 1530 1532 1534 1535 1535 1536 1536 1536 1536 1536 1536 1536 1536 1536 1536 1536 1536 1535 1535 1535 1535 1535 1534 1534 1534 1534 1533 1533 1533 1533 1533 1532 1532 1532 1531
1520 1530 1528 1524 1524 1524 1524 1524 1525 1526 1526 1528 1528 1529 1531 1532 1533 1534 1535 1535 1536 1536 1537 1537 1537 1537 1537 1537 1537 1537 1537 1537 1536 1536 1536 1536 1535 1535 1535 1535 1534 1534 1534 1534 1533 1533 1533 1533 1532
1520 1525 1523 1522 1522 1523 1524 1524 1524 1526 1528 1528 1528 1529 1531 1532 1533 1534 1534 1535 1536 1536 1537 1537 1537 1538 1538 1538 1538 1538 1537 1537 1537 1537 1537 1536 1536 1536 1536 1535 1535 1535 1535 1535 1534 1534 1534 1534 1533
1521 1521 1521 1522 1522 1523 1524 1524 1525 1525 1527 1527 1527 1528 1530 1531 1532 1533 1534 1535 1536 1536 1537 1538 1538 1538 1538 1538 1538 1538 1538 1538 1538 1538 1537 1537 1536 1536 1536 1536 1536 1536 1536 1535 1535 1535 1535 1534 1534
1521 1521 1521 1521 1522 1523 1523 1524 1525 1525 1526 1527 1528 1529 1529 1531 1532 1533 1534 1535 1536 1536 1537 1537 1538 1538 1539 1539 1539 1539 1539 1539 1539 1538 1538 1538 1537 1537 1537 1537 1537 1537 1536 1536 1536 1536 1535 1535 1535
1521 1521 1521 1521 1522 1523 1523 1524 1524 1525 1526 1527 1527 1528 1529 1530 1531 1532 1533 1534 1535 1536 1537 1537 1538 1539 1539 1539 1539 1539 1539 1539 1539 1539 1538 1538 1538 1537 1537 1537 1537 1537 1536 1536 1536 1536 1536 1535 1535
1521 1522 1523 1522 1521 1522 1523 1526 1524 1524 1525 1526 1527 1528 1529 1530 1531 1531 1532 1533 1534 1535 1536 1537 1538 1539 1539 1539 1539 1539 1539 1539 1539 1539 1539 1538 1538 1538 1537 1537 1537 1537 1537 1536 1536 1536 1536 1536 1536
1522 1526 1531 1524 1521 1521 1526 1532 1523 1523 1524 1525 1526 1527 1528 1529 1530 1531 1532 1533 1534 1535 1536 1537 1538 1538 1539 1539 1539 1539 1540 1539 1539 1539 1539 1538 1538 1538 1538 1537 1537 1537 1537 1536 1536 1536 1536 1536 1536
1528 1534 1532 1526 1519 1520 1524 1527 1521 1521 1522 1523 1524 1525 1526 1527 1528 1530 1531 1532 1533 1534 1535 1536 1537 1537 1538 1539 1539 1539 1540 1539 1539 1539 1539 1539 1538 1538 1538 1537 1537 1537 1537 1536 1536 1536 1536 1536 1536
1533 1532 1530 1527 1520 1519 1523 1523 1519 1519 1520 1521 1522 1523 1524 1525 1526 1528 1529 1530 1532 1533 1534 1535 1536 1537 1538 1538 1539 1539 1539 1539 1539 1539 1539 1539 1538 1538 1538 1538 1537 1537 1536 1536 1536 1536 1536 1537 1537
1522 1525 1527 1523 1516 1519 1521 1521 1518 1517 1518 1519 1520 1521 1522 1523 1525 1526 1528 1529 1531 1532 1533 1534 1535 1536 1537 1537 1537 1538 1538 1538 1538 1539 1539 1539 1538 1538 1538 1537 1537 1536 1536 1536 1536 1536 1537 1537 1537
1520 1524 1524 1519 1514 1517 1520 1519 1515 1515 1515 1515 1516 1517 1519 1521 1523 1525 1526 1528 1529 1530 1531 1533 1534 1535 1535 1536 1537 1537 1538 1538 1538 1538 1538 1538 1538 1538 1537 1537 1536 1536 1536 1536 1536 1536 1536 1536 1537
1518 1521 1521 1521 1516 1516 1520 1523 1518 1513 1512 1512 1513 1514 1516 1518 1519 1522 1524 1526 1527 1528 1529 1531 1532 1533 1534 1535 1536 1536 1537 1537 1537 1537 1537 1537 1537 1537 1536 1536 1536 1536 1536 1535 1535 1536 1535 1535 1536
1520 1512 1512 1515 1523 1528 1524 1536 1520 1513 1511 1510 1510 1512 1513 1515 1517 1519 1521 1523 1524 1526 1527 1529 1530 1531 1532 1533 1534 1535 1535 1535 1535 1536 1536 1536 1536 1536 1535 1535 1535 1535 1535 1534 1534 1534 1535 1535 1535
1512 1507 1509 1513 1520 1527 1525 1532 1524 1513 1512 1508 1507 1508 1510 1512 1514 1516 1518 1520 1522 1523 1525 1527 1528 1529 1530 1531 1532 1533 1534 1534 1534 1534 1534 1534 1534 1534 1534 1534 1534 1533 1533 1533 1533 1533 1533 1533 1534
1504 1509 1512 1519 1526 1536 1525 1530 1526 1514 1507 1504 1504 1505 1507 1509 1511 1513 1516 1518 1520 1522 1523 1524 1526 1527 1528 1529 1530 1531 1532 1532 1532 1532 1532 1532 1533 1533 1533 1532 1532 1532 1532 1531 1531 1532 1532 1532 1532
1507 1523 1538 1540 1543 1538 1519 1523 1519 1503 1498 1498 1499 1501 1504 1506 1508 1511 1514 1515 1517 1519 1520 1522 1523 1524 1526 1527 1528 1529 1530 1530 1530 1530 1530 1530 1530 1530 1530 1530 1530 1530 1530 1530 1530 1530 1530 1530 1530
1510 1519 1538 1546 1544 1535 1521 1523 1511 1498 1495 1496 1498 1499 1502 1504 1506 1509 1510 1512 1514 1516 1518 1519 1521 1522 1523 1525 1526 1527 1528 1528 1529 1529 1529 1529 1528 1528 1528 1528 1528 1528 1528 1528 1528 1528 1528 1528 1528
1510 1516 1517 1529 1530 1535 1529 1518 1506 1498 1497 1497 1498 1500 1501 1503 1504 1506 1508 1510 1512 1513 1515 1516 1518 1520 1521 1522 1524 1525 1526 1526 1526 1527 1527 1527 1526 1526 1526 1526 1526 1526 1525 1525 1525 1525 1525 1525 1525
1502 1508 1520 1528 1536 1540 1530 1523 1518 1506 1502 1499 1499 1499 1500 1501 1503 1505 1506 1508 1510 1511 1513 1514 1516 1517 1519 1520 1521 1522 1523 1524 1524 1524 1524 1524 1524 1524 1524 1523 1523 1523 1523 1523 1523 1523 1523 1523 1523
1505 1509 1515 1525 1528 1536 1537 1528 1504 1502 1500 1499 1498 1498 1499 1500 1501 1502 1504 1506 1507 1509 1511 1512 1514 1515 1516 1517 1518 1519 1520 1521 1521 1521 1522 1522 1522 1522 1521 1521 1520 1520 1520 1520 1520 1520 1520 1520 1520
1498 1503 1512 1525 1526 1527 1532 1527 1498 1498 1497 1498 1498 1498 1498 1499 1500 1501 1502 1503 1505 1507 1508 1510 1511 1512 1513 1514 1516 1516 1517 1518 1518 1518 1519 1519 1519 1519 1519 1518 1518 1517 1517 1517 1517 1517 1517 1517 1518